Weather History for KCEF - February, 2013

Change the Weather History Date:

Wednesday, February 13, 2013

  Actual Average Record
Temperature  
Mean Temperature 36 °F -  
Max Temperature 42 °F 34 °F 44 °F (2001)
Min Temperature 30 °F 17 °F -5 °F (2003)
Degree Days  
Heating Degree Days 29    
Moisture  
Dew Point 24 °F    
Average Humidity 69    
Maximum Humidity 94    
Minimum Humidity 44    
Precipitation  
Precipitation 0.00 in - - ()
Sea Level Pressure  
Sea Level Pressure 29.79 in    
Wind  
Wind Speed 6 mph (NNW)    
Max Wind Speed 15 mph    
Max Gust Speed -    
Visibility 8 miles    
Events Snow    
Averages and records for this station are not official NWS values.
T = Trace of Precipitation, MM = Missing Value Source: NWS Daily Summary

Daily Weather History Graph

Daily Weather History Graph

Search for Another Location

Airport or City:

Trip Planner

Search our weather history database for the weather conditions in past years. The results will help you decide how hot, cold, wet, or windy it might be!

Date:

Astronomy

Feb. 13, 2013 Rise Set
Actual Time 6:48 AM EST 5:20 PM EST
Civil Twilight 6:19 AM EST 5:49 PM EST
Nautical Twilight 5:47 AM EST 6:22 PM EST
Astronomical Twilight 5:14 AM EST 6:54 PM EST
Moon 8:11 AM EST (2/13) 9:26 PM EST (2/13)
Length of Visible Light 11h 29m
Length of Day
10h 31m
Waxing Crescent, 13% of the Moon is Illuminated
Feb 13
Waxing Crescent
Feb 17
First Quarter
Feb 25
Full
Mar 4
Last Quarter
Mar 11
New

Hourly Weather History & Observations

Time (EST) Temp. Windchill Dew Point Humidity Pressure Visibility Wind Dir Wind Speed Gust Speed Precip Events Conditions
12:55 AM 31.5 °F 23.5 °F 21.6 °F 67% 29.87 in 10.0 mi West 9.2 mph - N/A   Partly Cloudy
1:55 AM 33.6 °F 25.0 °F 22.1 °F 63% 29.87 in 10.0 mi West 11.5 mph - N/A   Overcast
2:55 AM 34.2 °F 24.4 °F 21.6 °F 60% 29.88 in 10.0 mi West 15.0 mph - N/A   Overcast
3:55 AM 33.3 °F 25.7 °F 22.8 °F 66% 29.88 in 10.0 mi West 9.2 mph - N/A   Overcast
4:55 AM 32.5 °F 24.8 °F 21.7 °F 64% 29.89 in 10.0 mi West 9.2 mph - N/A   Mostly Cloudy
5:55 AM 32.0 °F 24.8 °F 23.0 °F 69% 29.88 in 10.0 mi West 8.1 mph - N/A   Overcast
6:55 AM 33.4 °F 25.9 °F 23.5 °F 67% 29.88 in 10.0 mi WNW 9.2 mph - N/A   Overcast
7:55 AM 33.3 °F 25.7 °F 23.9 °F 69% 29.87 in 10.0 mi NW 9.2 mph - N/A   Overcast
8:55 AM 34.0 °F 28.0 °F 23.5 °F 66% 29.88 in 10.0 mi NW 6.9 mph - N/A   Overcast
9:55 AM 34.5 °F 30.4 °F 24.1 °F 66% 29.87 in 10.0 mi NNW 4.6 mph - N/A   Overcast
10:55 AM 35.4 °F 32.6 °F 22.1 °F 58% 29.86 in 10.0 mi North 3.5 mph - N/A   Overcast
11:55 AM 36.5 °F 33.9 °F 21.7 °F 55% 29.84 in 10.0 mi East 3.5 mph - N/A   Mostly Cloudy
12:55 PM 40.3 °F - 21.9 °F 48% 29.83 in 10.0 mi Calm Calm - N/A   Scattered Clouds
1:55 PM 42.4 °F - 21.9 °F 44% 29.80 in 10.0 mi Calm Calm - N/A   Clear
2:55 PM 39.0 °F 36.8 °F 22.1 °F 51% 29.77 in 10.0 mi NNE 3.5 mph - N/A   Clear
3:55 PM 39.6 °F - 22.1 °F 50% 29.76 in 10.0 mi Calm Calm - N/A   Clear
4:55 PM 39.9 °F - 20.1 °F 45% 29.74 in 10.0 mi Calm Calm - N/A   Clear
5:55 PM 33.1 °F - 22.6 °F 66% 29.74 in 10.0 mi Calm Calm - N/A   Clear
6:55 PM 32.0 °F 28.7 °F 23.9 °F 72% 29.73 in 10.0 mi NNE 3.5 mph - N/A   Clear
7:55 PM 31.6 °F 27.0 °F 23.4 °F 71% 29.73 in 10.0 mi North 4.6 mph - N/A   Mostly Cloudy
8:55 PM 31.8 °F 28.5 °F 24.6 °F 75% 29.73 in 10.0 mi North 3.5 mph - N/A   Scattered Clouds
9:55 PM 33.1 °F 28.7 °F 23.9 °F 69% 29.73 in 10.0 mi NNE 4.6 mph - N/A   Partly Cloudy
10:55 PM 33.4 °F 30.4 °F 21.9 °F 63% 29.73 in 10.0 mi North 3.5 mph - N/A   Scattered Clouds
11:03 PM 32.0 °F - 24.8 °F 75% 29.73 in 10.0 mi Calm Calm - N/A   Mostly Cloudy
11:06 PM 32.0 °F - 23.0 °F 69% 29.73 in 10.0 mi Calm Calm - N/A   Mostly Cloudy
11:10 PM 33.8 °F - 23.0 °F 65% 29.74 in 8.0 mi Calm Calm - N/A Snow Light Snow
11:18 PM 32.0 °F 26.4 °F 23.0 °F 69% 29.74 in 5.0 mi ENE 5.8 mph - N/A Snow Light Snow
11:30 PM 32.0 °F 28.7 °F 26.6 °F 80% 29.73 in 4.0 mi ENE 3.5 mph - N/A Snow Light Snow
11:33 PM 32.0 °F 28.7 °F 26.6 °F 80% 29.74 in 2.5 mi Variable 3.5 mph - N/A Snow Light Snow
11:36 PM 32.0 °F - 26.6 °F 80% 29.74 in 2.0 mi Calm Calm - N/A Snow Light Snow
11:42 PM 30.2 °F - 28.4 °F 93% 29.74 in 2.5 mi Calm Calm - N/A Snow Light Snow
11:49 PM 30.2 °F - 28.4 °F 93% 29.73 in 2.5 mi Calm Calm - N/A Snow Light Snow
11:53 PM 30.2 °F - 28.4 °F 93% 29.73 in 2.5 mi Calm Calm - N/A Snow Light Snow
11:55 PM 30.2 °F - 28.8 °F 94% 29.73 in 2.5 mi Calm Calm - 0.00 in Snow Light Snow
11:59 PM 30.2 °F - 28.4 °F 93% 29.72 in 3.0 mi Calm Calm - N/A Snow Light Snow